Hourly Data Report for October 29, 2013

All times are specified in Local Standard Time (LST). Add 1 hour to adjust for Daylight Saving Time where and when it is observed.

HALL BEACH A
NUNAVUT

68°46'33.000" N
81°14'33.000" W
9.10 m
2402354
71293
YUX

Download Data

Hourly Data (October 2013)
Hourly Data Report for October 29, 2013
Temp Definition
°C
Dew Point Temp Definition
°C
Rel Hum Definition
%
Wind Dir Definition
10's deg

Wind Spd Definition
km/h
Visibility Definition
km
Stn Press Definition
kPa
Hmdx Definition


Wind Chill Definition


Weather Definition


TIME
00:00 Legend Double Dagger -13.0 -15.1 84 33 21 16.1 100.42   -22 LegendNANA
01:00 Legend Double Dagger -13.1 -15.0 86 36 24 16.1 100.44   -23 LegendNANA
02:00 Legend Double Dagger -13.0 -15.2 84 36 30 16.1 100.44   -23 LegendNANA
03:00 Legend Double Dagger -16.7 -18.4 87 34 22 16.1 100.45   -27 LegendNANA
04:00 Legend Double Dagger -15.0 -17.0 85 35 26 16.1 100.46   -25 LegendNANA
05:00 Legend Double Dagger -19.8 -21.6 86 32 24 16.1 100.47   -31 LegendNANA
06:00 Legend Double Dagger -20.3 -22.3 84 32 26 3.2 100.48   -32 LegendNANA
07:00 Legend Double Dagger -20.2 -22.4 83 32 26 4.8 100.46   -32 LegendNANA
08:00 Legend Double Dagger -20.2 -22.1 85 33 28 6.4 100.45   -32 LegendNANA
09:00 Legend Double Dagger -19.8 -21.7 85 32 30 14.5 100.43   -32 LegendNANA
10:00 Legend Double Dagger -20.0 -22.1 84 32 30 12.9 100.43   -33 LegendNANA
11:00 Legend Double Dagger -18.2 -20.1 86 33 32 12.9 100.42   -31 LegendNANA
12:00 Legend Double Dagger -17.4 -19.2 86 33 33 3.6 100.40   -30 LegendNANA
13:00 Legend Double Dagger -17.3 -19.1 86 34 30 3.2 100.41   -29 LegendNANA
14:00 Legend Double Dagger -16.7 -18.5 86 33 35 2.8 100.42   -29 LegendNANA
15:00 Legend Double Dagger -16.5 -18.3 86 34 32 4.8 100.44   -28 LegendNANA
16:00 Legend Double Dagger -16.4 -18.1 87 34 28 4.8 100.46   -28 LegendNANA
17:00 Legend Double Dagger -15.8 -17.5 87 33 35 2.4 100.46   -28 LegendNANA
18:00 Legend Double Dagger -14.9 -16.5 88 34 33 4.0 100.50   -26 LegendNANA
19:00 Legend Double Dagger -13.0 -14.1 92 35 32 4.0 100.52   -24 LegendNANA
20:00 Legend Double Dagger -10.2 -11.4 91 36 33 3.6 100.50   -20 LegendNANA
21:00 Legend Double Dagger -11.1 -12.0 93 35 32 3.6 100.50   -21 LegendNANA
22:00 Legend Double Dagger -8.7 -9.6 93 2 21 16.1 100.50   -16 LegendNANA
23:00 Legend Double Dagger -7.3 -8.5 91 3 22 16.1 100.49   -15 LegendNANA

Notes on Data Quality.

Legend

  • E = Estimated
  • M = Missing
  • NA = Not Available
  • ‡ = Partner data that is not subject to review by the National Climate Archives
Date modified: